Weather in Georgievskoe

Russia / Kostroma Oblast     58°43′56″N   45°01′42″E
temp.,
°C
wind,
m/s
gust,
m/s
humid.,
%
clouds,
%
prec.,
mm/h
press.,
hPa
HPBL,
m
23 april, fri
fri2300:00+5s3109178 0.0 1019302
03:00+5s2891100 0.0 1019229
06:00+6sse398881 0.0 1020317
09:00+7sse41180100 0.0 1021461
12:00+14s585234 0.0 10201655
15:00+13sse4854100 0.0 1019953
18:00+12se51261100 0.0 1019600
21:00+9se31070100 0.0 1019309
24 april, sat
sat2400:00+8se3973100 0.0 1018306
03:00+8se31078100 0.0 1016304
06:00+8ese41178100 0.1 1015382
09:00+11se6106999 0.5 1014974
12:00+13se6847100 0.5 10122024
15:00+12ese5854100 0.5 10101696
18:00+10ese5964100 0.0 10091121
21:00+7ese51185100 0.1 1007858
25 april, sun
sun2500:00+6ese4989100 0.1 10051139
03:00+5e4895100 1.6 10021057
06:00+5e4995100 0.8 1000948
09:00+5e4896100 1.2 999907
12:00+5ene3594100 0.3 998969
15:00+5ene2494100 1.3 998927
18:00+4nne1197100 2.7 99948
21:00+3wsw3598100 5.2 1000690
26 april, mon
mon2600:00+1wsw51297100 2.6 1001504
03:00+1wsw61397100 5.6 1003779
06:00+1wsw51296100 1.3 1004928
09:00+3wsw51090100 1.4 1006938
12:00+5wsw61077100 0.3 10071304
15:00+6wsw5106996 0.8 10081498
18:00+5wsw48725 0.1 1008774
21:00+1sw28915 0.1 1009148
27 april, tue
tue2700:000sw22923 0.0 100931
03:00−1ssw2293100 0.0 100816
06:00+1ssw1286100 0.0 100876
09:00+5sse2272100 0.1 1006536
12:00+7nnw1259100 0.6 10051295
15:00+7nw3558100 1.2 10041284
18:00+5wnw3768100 0.5 1004313
21:00+2w3986100 0.6 1004229